Probability
0 1 2 2 1 0 1 2 2 1 0 0 0 0 0 0 0 0 0 0 0 0 0 0 0 0 0 0 0 0 0 0 0 0 0 1 0 0 0 0 0 0 0
0 1 2 2 0 0 0 1 2 1 0 0 0 0 0 0 0 0 0 0 0 0 0 0 0 0 0 0 0 0 0 0 0 0 1 1 1 0 0 0 0 0 0
1 1 2 2 1 0 0 0 1 1 0 0 0 0 0 0 0 0 0 0 0 0 0 1 1 0 0 0 0 0 0 0 1 1 1 2 2 1 0 0 0 0 0
2 2 2 2 2 1 0 0 0 0 0 0 0 0 0 0 0 0 0 0 0 0 0 1 1 0 0 0 0 0 0 0 1 1 1 2 3 2 1 0 0 0 0
2 1 1 1 2 2 1 0 0 0 0 0 0 0 0 0 0 0 0 0 0 0 0 0 0 0 0 0 0 0 0 0 0 1 1 2 2 2 1 0 0 1 1
1 0 0 0 1 2 1 0 0 0 0 0 0 0 0 0 0 0 0 0 0 0 0 0 0 0 0 0 0 0 0 0 0 0 1 1 1 2 1 0 1 2 2
0 0 0 0 1 1 1 0 0 0 0 0 0 0 0 0 0 0 0 0 0 0 0 0 0 0 0 0 0 0 0 0 0 0 0 0 1 1 1 0 1 1 2
0 0 0 0 0 0 0 0 0 0 0 0 0 0 0 0 0 0 0 0 0 0 0 0 0 0 0 0 0 0 0 0 0 0 0 0 0 0 0 0 0 0 1
0 0 0 0 0 0 0 0 0 0 0 0 0 0 0 0 0 0 0 0 0 0 0 0 0 0 0 0 0 0 0 0 0 0 0 0 0 0 0 0 0 0 0
0 0 0 0 0 0 0 0 0 0 0 0 0 0 0 0 0 0 0 0 0 0 0 0 0 0 0 0 0 0 0 0 0 0 0 0 0 0 0 0 0 0 0
0 0 0 0 0 0 0 0 0 0 0 0 0 0 0 0 0 0 0 0 0 0 0 0 0 0 0 0 0 0 0 0 0 0 0 0 0 0 0 1 2 1 0
0 0 0 0 0 0 0 0 0 0 0 0 0 0 0 0 0 0 0 0 0 0 0 0 0 0 0 0 0 0 0 0 0 0 0 0 1 0 0 2 3 2 1
0 0 0 0 0 0 0 0 0 0 0 0 0 0 0 0 0 0 0 0 0 0 0 0 0 0 0 0 0 0 0 0 0 0 0 0 0 0 0 1 3 2 1
0 0 0 0 0 0 0 0 0 0 0 0 0 0 0 0 0 0 0 0 0 0 0 0 0 0 0 0 0 0 0 0 0 0 0 0 0 0 0 1 2 2 1
1 1 0 0 0 0 0 0 0 0 0 0 0 0 0 0 0 0 0 0 0 0 0 0 0 0 0 0 0 0 0 0 0 0 0 0 0 0 0 0 1 1 0
2 2 1 1 0 0 0 0 0 0 0 0 0 0 0 0 0 0 0 0 0 0 0 0 0 0 0 0 0 0 0 0 0 0 0 0 0 0 0 0 0 0 0
3 3 3 2 1 0 0 0 0 0 0 0 0 0 0 0 0 0 0 0 0 0 0 0 0 0 0 0 0 0 0 0 0 0 0 0 0 0 0 0 0 0 0
3 3 3 2 1 0 0 0 0 0 0 0 0 0 0 0 0 0 0 0 0 0 0 0 0 0 0 0 0 0 0 0 0 0 0 0 0 0 0 0 0 0 0
3 2 1 1 0 0 0 0 0 0 0 0 0 0 0 0 0 0 0 0 0 0 0 0 0 0 0 0 0 0 0 0 0 0 0 0 0 0 0 0 0 0 0
3 1 0 0 0 0 0 0 0 0 0 0 0 0 0 0 0 0 0 0 0 0 0 0 0 0 0 0 0 0 0 0 0 0 0 0 0 0 0 0 0 0 0
4 1 0 0 0 0 0 0 0 0 0 0 0 0 0 0 0 0 0 0 0 0 0 0 0 0 0 0 0 0 0 0 0 0 0 0 0 0 0 0 0 0 0
3 1 0 0 0 0 0 0 0 0 0 0 0 0 0 0 0 0 0 0 0 0 0 0 0 0 0 0 0 0 0 0 0 0 0 0 0 0 0 0 0 0 0
1 0 0 0 0 0 0 0 0 0 0 0 0 0 0 0 0 0 0 0 0 0 0 0 0 0 0 0 0 0 0 0 0 0 0 0 0 0 0 0 0 0 0
0 0 0 0 0 0 0 0 0 0 0 0 0 0 0 0 0 0 0 0 0 0 0 0 0 0 0 0 0 0 0 0 0 0 0 0 0 0 0 0 0 0 0
0 0 0 0 0 0 0 0 0 0 0 0 0 0 0 0 0 0 0 0 0 0 0 0 0 0 0 0 0 0 0 0 0 0 0 0 0 0 0 0 0 0 0
0 0 0 0 0 0 0 0 0 0 0 0 0 0 0 0 0 0 0 0 0 0 0 0 0 0 0 0 0 0 0 0 0 0 0 0 0 0 0 0 0 0 0
Wind_Speed
2 2 2 2 2 2 2 2 1 2 2 2 3 4 4 4 4 4 3 6 7 7 8 8 8 8 8 8 8 8 8 9 9 9 10 10 10 9 9 9 10 10 10
2 3 2 2 2 1 1 2 2 2 2 3 3 4 3 4 4 4 3 4 5 6 7 7 7 7 7 7 7 7 7 8 8 8 8 9 8 8 8 8 8 9 9
2 2 3 2 2 1 2 2 3 3 2 3 3 3 3 3 3 3 3 2 2 4 5 6 6 6 6 6 6 6 6 6 6 6 6 6 6 6 6 7 7 7 7
2 2 2 2 2 2 2 2 2 3 2 2 2 2 2 2 3 2 2 2 2 2 3 5 5 5 5 5 5 5 5 5 5 4 4 4 4 4 5 5 5 5 5
2 2 2 2 2 2 2 2 2 2 3 3 2 2 1 1 1 2 2 2 2 2 2 4 4 4 4 4 4 4 4 3 3 3 3 2 3 3 3 3 3 3 4
2 2 2 2 3 2 2 2 2 2 2 2 3 2 1 1 1 1 2 1 2 2 2 2 2 2 3 3 3 2 2 2 2 1 1 1 1 1 1 1 1 1 2
2 2 2 2 2 2 2 3 3 3 2 2 3 2 2 1 1 1 1 1 1 2 2 2 2 2 1 2 2 1 1 2 2 1 0 0 0 1 1 1 1 0 1
1 2 2 2 2 2 3 3 3 2 1 1 2 2 1 1 1 1 1 1 1 1 1 1 2 2 1 1 1 1 1 0 1 2 2 1 1 1 1 1 1 1 1
1 2 2 2 2 2 2 2 2 2 2 1 1 1 2 2 1 0 1 1 1 1 1 1 1 2 2 1 1 1 1 1 2 3 3 3 2 2 2 3 2 2 1
1 1 2 2 2 2 2 2 2 1 2 2 1 0 1 2 2 1 0 0 1 1 1 1 1 1 1 1 1 1 1 2 3 3 3 3 3 4 4 4 3 3 3
1 1 2 2 2 2 2 2 1 1 1 2 1 0 0 0 0 2 1 1 1 0 0 0 0 0 1 1 1 0 1 2 3 3 3 3 3 4 4 4 4 4 4
1 1 1 2 2 2 2 2 2 2 1 1 1 1 1 1 1 1 1 1 1 1 0 0 0 0 0 1 1 1 1 2 2 3 4 4 4 4 4 4 4 4 4
0 0 1 1 1 1 2 1 2 1 1 1 1 1 1 1 1 1 1 1 1 1 1 1 1 1 0 1 0 0 1 1 2 3 3 4 3 3 4 4 3 3 4
1 1 1 1 1 2 1 2 1 1 1 1 1 1 1 1 0 1 2 2 1 1 1 2 1 1 0 1 0 1 2 2 1 2 3 3 2 2 3 3 3 3 3
1 1 2 1 1 2 2 2 2 2 1 1 1 1 1 1 1 1 1 2 3 2 3 2 1 1 1 1 0 1 1 2 2 2 2 2 2 2 2 3 3 3 3
1 1 2 2 2 2 2 2 2 2 2 1 1 1 1 1 1 1 1 1 1 2 3 2 1 1 1 1 1 1 2 2 3 3 2 2 2 2 2 3 3 3 3
1 2 2 2 2 2 2 3 2 2 3 2 1 1 1 1 1 1 1 1 1 1 2 2 1 1 1 1 1 1 1 1 2 3 3 3 2 2 2 2 3 3 3
1 2 2 2 2 2 2 3 3 3 3 3 2 2 2 2 2 2 2 2 2 2 2 3 2 1 2 2 2 2 1 1 1 3 3 3 3 2 2 2 2 3 3
1 1 2 2 2 2 2 2 3 3 3 3 3 3 3 2 3 2 2 2 2 2 1 2 2 1 1 1 1 1 1 1 1 2 4 4 4 4 3 2 2 2 2
1 1 1 2 2 2 2 2 2 2 3 3 3 3 3 3 3 3 3 3 2 2 1 2 2 1 1 1 1 1 2 2 2 1 3 3 4 4 4 3 2 2 2
1 1 1 1 2 2 2 2 3 3 3 3 2 2 3 3 3 3 3 2 2 2 2 2 2 1 1 1 2 2 2 2 2 1 1 2 2 2 3 4 3 3 3
1 1 2 2 2 2 3 3 3 3 3 3 4 3 3 3 3 4 4 4 4 4 3 3 2 3 3 2 2 1 1 1 2 1 1 3 1 2 2 2 4 4 4
1 1 1 2 2 2 3 4 4 3 2 3 4 4 3 3 3 3 3 4 4 4 5 4 4 4 4 3 3 2 2 3 3 2 1 3 2 2 2 3 5 5 4
1 1 1 2 2 3 4 4 4 3 2 3 3 4 4 4 4 4 3 3 3 3 4 3 4 4 4 3 4 4 3 2 2 1 0 2 2 2 3 2 5 5 4
1 1 2 1 2 2 4 4 4 2 2 3 4 4 4 4 5 5 4 4 4 3 3 4 4 4 4 3 3 2 2 2 2 2 0 1 2 2 2 2 3 4 3
2 2 2 2 2 3 4 5 5 2 3 3 3 3 5 5 6 5 4 5 5 4 3 2 2 2 2 2 3 3 3 3 2 2 1 1 1 1 2 2 1 1 2
Wind_Direction
104 104 105 113 124 125 133 136 120 105 96 83 77 74 75 81 89 92 89 91 95 103 108 106 103 105 103 100 96 89 87 88 87 84 80 77 74 70 66 66 67 66 64
101 115 113 105 102 108 129 126 107 95 80 76 71 70 74 85 88 90 92 92 93 104 110 112 109 105 110 110 105 98 93 91 88 87 84 80 76 72 67 66 65 64 62
93 110 125 111 108 118 109 103 98 89 85 76 69 65 68 75 89 94 97 92 94 98 113 115 114 111 107 114 115 109 102 96 88 87 88 85 78 73 69 67 70 66 62
85 97 111 115 111 112 112 118 113 102 93 87 75 60 67 75 86 91 90 95 99 105 107 112 111 112 111 111 116 120 113 107 100 94 95 93 87 80 75 70 75 68 61
86 95 107 105 98 102 102 111 110 116 113 104 98 83 74 83 88 97 93 94 99 107 122 112 110 110 112 114 114 122 123 122 116 102 99 105 102 98 88 77 79 70 61
86 97 107 104 101 107 104 104 108 103 118 125 109 83 70 89 84 98 108 95 98 104 125 139 133 119 114 120 123 128 141 148 141 117 89 102 133 135 125 89 102 92 65
104 114 104 111 108 112 116 112 112 114 107 112 101 82 38 45 93 110 105 100 102 99 101 143 149 142 135 120 110 112 134 175 192 207 255 353 226 180 191 192 165 136 51
106 126 117 124 124 119 115 111 111 114 116 112 120 119 98 10 4 60 93 113 130 107 92 107 118 119 128 129 97 69 24 294 238 234 235 241 233 224 245 259 243 243 236
98 138 135 134 132 126 134 137 127 121 151 165 114 128 151 186 188 264 181 131 118 93 82 63 119 130 123 121 121 75 34 335 291 262 246 243 243 241 258 275 268 257 249
98 129 132 134 141 136 138 150 123 126 151 167 188 314 162 145 154 172 251 208 144 120 89 66 40 167 141 129 111 72 29 324 305 287 267 253 260 254 254 261 268 273 266
91 113 131 137 147 146 147 151 141 141 164 172 168 175 45 21 161 161 202 224 257 239 144 96 69 10 168 147 146 92 336 314 301 297 295 280 278 279 275 269 269 277 278
100 54 115 138 149 148 153 167 162 160 165 189 164 153 156 172 225 181 181 202 231 249 238 218 180 143 167 153 163 137 291 299 292 288 292 287 287 297 297 289 290 291 288
136 229 114 153 146 140 147 152 146 167 175 189 189 196 201 235 215 185 158 197 241 271 244 243 198 165 132 102 111 182 238 281 288 291 290 287 294 310 317 303 304 309 311
196 202 173 166 156 159 166 155 144 168 165 167 215 197 190 241 232 191 182 171 201 267 255 241 225 165 138 116 340 330 255 248 262 289 296 300 310 321 328 316 310 310 313
203 187 165 156 170 179 174 166 165 174 171 185 203 205 197 218 229 241 193 179 179 213 241 235 222 216 178 159 245 256 267 252 245 255 285 301 307 311 318 315 311 305 304
185 179 166 173 179 185 185 171 173 181 176 200 202 201 215 215 209 234 227 224 197 201 234 237 231 240 220 251 247 244 247 262 249 245 261 283 290 296 315 316 316 308 300
172 180 181 183 185 195 198 189 188 188 192 199 215 214 232 219 206 217 227 225 222 212 237 262 267 259 224 239 267 258 235 235 238 247 258 264 265 273 303 316 313 316 299
197 187 176 192 199 207 211 203 201 204 201 202 209 215 234 232 218 216 212 220 229 226 221 249 273 253 238 229 237 248 263 266 236 242 258 250 248 267 280 294 307 330 319
216 178 159 192 200 202 218 221 210 206 207 209 211 216 224 227 236 232 226 223 236 244 223 225 256 269 255 239 249 271 277 281 276 247 245 241 246 257 262 267 292 319 335
213 195 182 200 210 217 219 219 225 219 211 215 217 221 223 222 232 226 227 229 230 239 221 215 239 248 249 244 226 246 272 281 283 275 252 249 249 251 254 256 261 273 301
256 212 194 210 215 223 224 219 214 222 214 215 221 229 231 229 241 239 235 230 225 231 229 219 228 243 242 219 229 241 263 290 281 275 284 263 247 239 243 244 242 249 267
236 206 205 206 228 251 264 265 256 231 229 220 223 231 237 233 240 245 244 240 229 223 229 229 232 233 235 234 237 238 265 288 274 289 292 278 254 250 238 226 255 258 259
262 229 223 213 224 248 271 271 272 263 239 235 229 226 234 232 236 234 240 246 250 248 236 232 235 237 228 225 223 232 235 249 257 258 298 273 261 259 262 264 262 255 254
277 271 262 244 242 259 273 271 271 261 251 244 238 229 225 229 230 227 224 223 234 247 241 236 234 239 233 222 213 222 236 258 285 283 243 264 266 265 279 258 251 246 250
309 290 285 269 263 273 275 275 274 246 244 247 241 232 224 227 237 241 227 217 223 241 252 234 234 247 254 247 233 207 205 230 268 264 260 249 275 296 286 268 256 247 262
296 297 300 294 277 271 271 274 274 242 244 250 249 232 232 234 232 244 233 216 221 229 223 226 241 267 257 241 241 213 197 213 240 253 225 220 270 341 306 290 287 264 261